{"data":{"norad_id":67639,"intl_designator":"2026-020Y","name":"STARLINK-36595","alt_names":[],"object_type":"PAYLOAD","status":"ACTIVE","operator":null,"country":"US","launch_date":"2026-01-30","launch_site_code":"AFETR","launch_vehicle":null,"mission":null,"orbit_class":"UNKNOWN","rcs_meters":null,"size_class":null,"mass_kg":null,"dimensions":null,"purposes":["comms"],"wikipedia_slug":null,"has_3d_model":false,"image_url":null,"decayed_at":null,"tle_current":{"epoch":"2026-09-19T21:21:27.653760Z","epoch_age_seconds":122437,"freshness":"FRESH","line1":"1 67639U 26020Y   26262.88990340 -.00012779  00000+0 -45615-3 0  9991","line2":"2 67639  43.0001 123.0599 0001768 281.2181  78.8471 15.27544041 35810","mean_motion":15.27544041,"eccentricity":0.0001768,"inclination_deg":43.0001,"raan_deg":123.0599,"arg_perigee_deg":281.2181,"mean_anomaly_deg":78.8471,"bstar":-0.00045615,"rev_number":3581,"period_min":94.268967790762,"perigee_km":481.94369559513,"apogee_km":484.36984907302,"semimajor_km":6861.2937723341,"source":"CELESTRAK","updated_at":"2026-09-20T09:00:43.615855Z"}}}